Regional Weather Roundup
Issued by NWS

Home | Current Version | Previous Version | Graphics & Text | Print | Product List | Glossary On
Versions: 1 2 3 4 5 6 7 8 9 10 11 12 13 14 15 16 17 18 19 20 21 22 23 24 25 26 27 28 29 30 31 32 33 34 35 36 37 38 39 40 41 42 43 44 45 46 47 48 49 50
000
ASUS43 KMKX 281121
RWRWI

WISCONSIN REGIONAL WEATHER ROUNDUP
NATIONAL WEATHER SERVICE MILWAUKEE/SULLIVAN WI
600 AM CDT FRI AUG 28 2015

NOTE: "FAIR" INDICATES FEW OR NO CLOUDS BELOW 12,000 FEET WITH NO
SIGNIFICANT WEATHER AND/OR OBSTRUCTIONS TO VISIBILITY.

WIZ001-002-006>008-014>016-023>028-281200-
NORTHWEST WISCONSIN

CITY           SKY/WX    TMP DP  RH WIND       PRES   REMARKS
SUPERIOR ARPT  CLOUDY    55  52  92 CALM      29.97S
ASHLAND        CLOUDY    63  60  90 S6        29.99S
HAYWARD        CLEAR     59  57  93 S6        30.02S
SIREN          CLEAR     62  59  90 SW6       30.00S
CUMBERLAND     PTCLDY    55  54  94 CALM      30.01F
RICE LAKE      PTCLDY    58  56  95 CALM      30.03F
CHETEK         PTCLDY   N/A N/A N/A E5        30.02F
LADYSMITH      PTCLDY    59  58  94 SE5       30.05S
EAU CLAIRE     CLOUDY    61  57  87 SE6       30.01F
MENOMONIE      CLOUDY    59  58  96 S6        30.03R
NEW RICHMOND   MOCLDY    59  58  98 CALM      30.02R
OSCEOLA        PTCLDY    58  58 100 CALM      30.03R
$$

WIZ003>005-009-010-017-018-281200-
NORTH CENTRAL WISCONSIN

CITY           SKY/WX    TMP DP  RH WIND       PRES   REMARKS
MANITOWISH WTR PTCLDY    58  58 100 S6        30.04S
ARBOR VITAE    PTCLDY    59  57  93 S6        30.06S
WOODRUFF       PTCLDY    59  57  93 S6        30.06S
RHINELANDER    MOCLDY    60  57  89 SW9       30.08S
EAGLE RIVER    MOCLDY    58  57  97 CALM      30.06S
LAND O LAKES   MOCLDY    57  57  99 CALM      30.06F
PHILLIPS       PTCLDY    58  57  98 S3        30.04S
TOMAHAWK       MOCLDY    55  54  95 CALM      30.08S
MEDFORD        MOCLDY    57  56  96 S6        30.07S
MERRILL        MOCLDY    59  58  96 S3        30.08S
$$

WIZ029-030-035-036-043>047-281200-
CENTRAL WISCONSIN

CITY           SKY/WX    TMP DP  RH WIND       PRES   REMARKS
WAUSAU         MOCLDY    60  58  92 SE6       30.07F
MOSINEE        PTCLDY    57  57 100 S7        30.09F
MARSHFIELD     MOCLDY    56  53  90 S6        30.07F
STEVENS POINT  MOCLDY    56  55  96 S3        30.10S
WAUPACA        MOCLDY    58  57  97 CALM      30.11S
WAUTOMA        MOCLDY    55  55 100 CALM      30.11S
WISC RAPIDS    MOCLDY    58  55  90 S6        30.10F
CAMP DOUGLAS   CLOUDY    55  55 100 SE6       30.07F
$$

WIZ011>013-019>022-031-037>040-048>050-281200-
NORTHEAST WISCONSIN

CITY           SKY/WX    TMP DP  RH WIND       PRES   REMARKS
ANTIGO         MOCLDY    58  57  96 SW7       30.10S
SHAWANO        MOCLDY    60  57  92 CALM      30.10R
OCONTO         PTCLDY    56  56 100 CALM      30.09R
STURGEON BAY   MOCLDY    55  50  82 SW7       30.13R
GREEN BAY      MOCLDY    56  54  93 SW3       30.11R
MANITOWOC      PTCLDY    52  50  93 MISG      30.13R
APPLETON       MOCLDY    57  54  88 VRB6      30.10R
CLINTONVILLE   MOCLDY    55  55 100 CALM      30.10S
OSHKOSH        PTCLDY    56  52  86 S5        30.11R
$$

WIZ032>034-041-042-053>061-281200-
SOUTHWEST WISCONSIN

CITY           SKY/WX    TMP DP  RH WIND       PRES   REMARKS
LA CROSSE      CLOUDY    65  59  81 S12       30.04F
SPARTA         CLOUDY    61  58  87 CALM      30.07S
VIROQUA        CLOUDY    60  60 100 SE6       30.08S
BOSCOBEL       CLOUDY    60  58  92 NE3       30.09S
PRAIRIE DU CHI CLOUDY    63  58  83 E7        30.07R
PLATTEVILLE    CLOUDY    60  59  96 SE3       30.10S
$$

WIZ056-057-062-063-064-067-068-281200-
SOUTH CENTRAL WISCONSIN

CITY           SKY/WX    TMP DP  RH WIND       PRES   REMARKS
REEDSBURG      MOCLDY    58  56  94 CALM      30.09F
BARABOO/DELLS  MOCLDY    57  54  90 S3        30.10S
LONE ROCK      CLOUDY    56  54  93 CALM      30.10F FOG
MINERAL POINT  CLOUDY    61  59  94 CALM      30.11S FOG
MADISON        MOCLDY    60  55  83 S7        30.11S
MIDDLETON      PTCLDY    59  56  89 S3        30.12S
WATERTOWN      PTCLDY    52  52 100 CALM      30.12R
MONROE         CLOUDY    59  55  88 S5        30.11S
JANESVILLE     CLOUDY    59  55  88 CALM      30.11R FOG
$$

WIZ051-052-058>065-066-070>072-281200-
SOUTHEAST WISCONSIN

CITY           SKY/WX    TMP DP  RH WIND       PRES   REMARKS
MILWAUKEE      PTCLDY    59  55  87 CALM      30.12S
WAUKESHA       CLEAR     55  54  94 CALM      30.14R
MILWAUKEE/TIMM CLEAR     54  52  94 CALM      30.13S FOG
RACINE         CLEAR     59  56  89 SW5       30.14R
BURLINGTON     PTCLDY    49  49  99 CALM      30.13R FOG
KENOSHA        CLEAR     54  53  97 CALM      30.13R FOG
FOND DU LAC    PTCLDY    53  52  96 CALM      30.13R
SHEBOYGAN      PTCLDY    51  50  96 CALM      30.13R
WEST BEND      CLEAR     54  50  87 CALM      30.12R FOG
JUNEAU         PTCLDY    54  51  91 CALM      30.14R
$$

LSZ147-162-281200-
LAKE SUPERIOR

STATION/POSITION TIME  TEMP    WIND        PRES    WAVE
                       AIR SEA DIR/SP/G            HT/PER
                 (UTC) (F)     (DEG/KT/KT) (MB)    (FT/S)
W MID LAKE BUOY  1050   58 55  200/ 10/ 10 1015.0F   0
DEVILS ISLAND    1100   61     200/  5/  6 1015.1F
PORT WING        1040   56     160/  2/  2 1015.2S
SAXON HARBOR     1040   63     200/  1/  5 1014.9F
$$

LMZ867-665-643>646-281200-
LAKE MICHIGAN

STATION/POSITION TIME  TEMP    WIND        PRES    WAVE
                       AIR SEA DIR/SP/G            HT/PER
                 (UTC) (F)     (DEG/KT/KT) (MB)    (FT/S)
CHAMBERS ISLAND  1000   60     180/  3/  7 1018.3F
S GREEN BAY BUOY 1100   63     200/ 14/ 17 1020.3R
N MID LAKE BUOY  1050   63 64  210/ 16/ 21 1018.3F   3/ 4
NORTHPORT PIER   1100   59     160/  3/  7 1018.6R
SISTER BAY       0849   61     190/  7/  9   N/A
ALGOMA LAKESHORE 1014             CALM       N/A
KEWAUNEE LAKESHO 1000   49     160/  2/  3 1018.3S
SHEBOYGAN LAKESH 1100   54     180/  5/  6 1020.6R
PORT WASHINGTON  1000   51      CALM  /  2 1020.3S
ATWATER BUOY     1100   51 47  160/  2/  4 1021.3R
MILWAUKEE LAKESH 1100   57     230/  1/  1   N/A
S MID LAKE BUOY  0950   67 67  170/ 12/ 14 1019.5F   1/ 3
KENOSHA   LAKESH 1100   62     210/  4/  4 1019.6R
$$

TC  - TEMPERATURE IN CELSIUS
VSB - VISIBILITY IN STATUTE MILES
WCI - WIND CHILL INDEX
HX  - HEAT INDEX



USA.gov is the U.S. government's official web portal to all federal, state and local government web resources and services.